Location: Pea Ridge
(34.0640°N, 87.8670°W)
Time: 20:15:57
(UTC+00:00)

Tiros 1 despin weight - All Passes

Search period start: 16 December 2025 00:00
Search period end: 26 December 2025 00:00
Orbit: 558 x 596 km, 48.2° (Epoch: 14 December)

Date Brightness Start Highest point End Pass type
(mag) Time Alt. Az. Time Alt. Az. Time Alt. Az.
16 Dec - 01:02:05 10° NNW 01:03:45 12° N 01:05:25 10° NNE visible
16 Dec - 02:42:24 10° NNW 02:45:40 21° NNE 02:48:53 10° ENE night (unlit)
16 Dec - 04:22:27 10° NW 04:26:42 86° SW 04:30:54 10° SE night (unlit)
16 Dec - 06:05:49 10° WSW 06:06:45 11° SW 06:07:42 10° SW night (unlit)
16 Dec - 19:59:35 10° S 20:03:17 27° SE 20:06:57 10° ENE daylight
16 Dec - 21:39:34 10° WSW 21:43:45 45° NNW 21:47:55 10° NE daylight
16 Dec - 23:22:39 10° NW 23:25:11 15° NNW 23:27:44 10° NNE visible
17 Dec - 01:05:20 10° NNW 01:07:16 13° N 01:09:10 10° NNE visible
17 Dec - 02:45:18 10° NNW 02:48:59 28° NNE 02:52:39 10° E night (unlit)
17 Dec - 04:25:40 10° WNW 04:29:46 50° SW 04:33:49 10° SSE night (unlit)
17 Dec - 20:02:04 10° SSW 20:06:15 45° SE 20:10:25 10° ENE daylight
17 Dec - 21:43:05 10° W 21:46:59 31° NNW 21:50:51 10° NE daylight
17 Dec - 23:26:35 10° NW 23:28:39 13° N 23:30:44 10° NNE visible
18 Dec - 01:08:22 10° NNW 01:10:43 14° NNE 01:13:05 10° NE visible
18 Dec - 02:48:13 10° NW 02:52:15 40° NNE 02:56:13 10° ESE night (unlit)
18 Dec - 04:29:04 10° WNW 04:32:44 29° SW 04:36:23 10° SSE night (unlit)
18 Dec - 20:04:55 10° SW 20:09:18 77° SE 20:13:38 10° NE daylight
18 Dec - 21:46:47 10° WNW 21:50:17 23° NNW 21:53:45 10° NNE daylight
18 Dec - 23:30:22 10° NNW 23:32:09 12° N 23:33:55 10° NNE visible
19 Dec - 01:11:16 10° NNW 01:14:09 17° NNE 01:17:01 10° ENE visible
19 Dec - 02:51:12 10° NW 02:55:26 63° NE 02:59:36 10° ESE night (unlit)
19 Dec - 04:32:52 10° W 04:35:39 17° SW 04:38:26 10° S night (unlit)
19 Dec - 18:29:09 10° S 18:32:06 18° SE 18:35:03 10° E daylight
19 Dec - 20:08:02 10° WSW 20:12:23 66° NW 20:16:43 10° NE daylight
19 Dec - 21:50:37 10° WNW 21:53:38 18° NNW 21:56:38 10° NNE daylight
19 Dec - 23:33:52 10° NNW 23:35:38 12° N 23:37:23 10° NNE visible
20 Dec - 01:14:09 10° NNW 01:17:31 22° NNE 01:20:51 10° ENE visible
20 Dec - 02:54:16 10° NW 02:58:32 79° SW 03:02:43 10° SE night (unlit)
20 Dec - 18:31:12 10° SSW 18:35:01 30° SE 18:38:50 10° ENE daylight
20 Dec - 20:11:23 10° WSW 20:15:32 42° NNW 20:19:42 10° NE daylight
20 Dec - 21:54:31 10° NW 21:57:03 15° NNW 21:59:33 10° NNE daylight
20 Dec - 23:37:04 10° NNW 23:39:07 13° N 23:41:08 10° NE visible
21 Dec - 01:17:02 10° NW 01:20:49 30° NNE 01:24:34 10° E visible
21 Dec - 02:57:28 10° WNW 03:01:32 46° SW 03:05:33 10° SSE night (unlit)
21 Dec - 18:33:44 10° SSW 18:37:59 50° SE 18:42:14 10° ENE daylight
21 Dec - 20:14:54 10° W 20:18:46 29° NNW 20:22:36 10° NE daylight
21 Dec - 21:58:24 10° NW 22:00:29 13° N 22:02:33 10° NNE daylight
21 Dec - 23:40:03 10° NNW 23:42:33 15° NNE 23:45:03 10° NE visible
22 Dec - 01:19:56 10° NW 01:24:02 43° NNE 01:28:04 10° ESE visible
22 Dec - 03:00:54 10° WNW 03:04:29 27° SW 03:08:02 10° S night (unlit)
22 Dec - 16:59:36 10° SE 17:00:55 11° SE 17:02:14 10° ESE daylight
22 Dec - 18:36:36 10° SW 18:41:00 84° SE 18:45:24 10° NE daylight
22 Dec - 20:18:36 10° WNW 20:22:03 22° NNW 20:25:28 10° NNE daylight
22 Dec - 22:02:08 10° NNW 22:03:56 12° N 22:05:46 10° NNE daylight
22 Dec - 23:42:56 10° NNW 23:45:57 18° NNE 23:48:56 10° ENE visible
23 Dec - 01:22:54 10° NW 01:27:10 69° NE 01:31:23 10° ESE visible
23 Dec - 03:04:47 10° W 03:07:22 16° SW 03:09:56 10° SSW night (unlit)
23 Dec - 17:00:36 10° S 17:03:46 20° SE 17:06:56 10° E daylight
23 Dec - 18:39:44 10° WSW 18:44:06 61° NW 18:48:25 10° NE daylight
23 Dec - 20:22:25 10° WNW 20:25:23 17° NNW 20:28:21 10° NNE daylight
23 Dec - 22:05:33 10° NNW 22:07:25 12° N 22:09:16 10° NNE daylight
23 Dec - 23:45:47 10° NNW 23:49:17 23° NNE 23:52:44 10° ENE visible
24 Dec - 01:25:58 10° NW 01:30:14 73° SW 01:34:26 10° SE visible
24 Dec - 17:02:43 10° SSW 17:06:40 32° SE 17:10:37 10° ENE daylight
24 Dec - 18:43:05 10° W 18:47:14 40° NNW 18:51:22 10° NE daylight
24 Dec - 20:26:17 10° NW 20:28:46 15° NNW 20:31:15 10° NNE daylight
24 Dec - 22:08:41 10° NNW 22:10:51 13° N 22:13:01 10° NE daylight
24 Dec - 23:48:39 10° NW 23:52:32 32° NNE 23:56:22 10° E visible
25 Dec - 01:29:10 10° WNW 01:33:13 42° SW 01:37:12 10° SSE visible
25 Dec - 17:05:19 10° SW 17:09:37 55° SE 17:13:55 10° ENE daylight
25 Dec - 18:46:37 10° W 18:50:26 28° NNW 18:54:15 10° NE daylight
25 Dec - 20:30:08 10° NW 20:32:12 13° N 20:34:16 10° NNE daylight
25 Dec - 22:11:38 10° NNW 22:14:16 16° NNE 22:16:54 10° NE daylight
25 Dec - 23:51:33 10° NW 23:55:43 47° NNE 23:59:49 10° ESE visible
